Hourly Weather Roundup
Issued by NWS Central Illinois

Home | Current Version | Previous Version | Text Only | Print | Product List | Glossary On
Versions: 1 2 3 4 5 6 7 8 9 10 11 12 13 14 15 16 17 18 19 20 21 22 23 24 25 26 27 28 29 30 31 32 33 34 35 36 37 38 39 40 41 42 43 44 45 46 47 48 49 50
000
NZUS43 KILX 011310
HWRILX

AREA WEATHER ROUNDUP
NATIONAL WEATHER SERVICE, LINCOLN IL
800 AM CDT WED APR 01 2015


CITY           SKY/WX    TMP DP  RH WIND       PRES   REMARKS
BLOOMINGTON    SUNNY     47  39  73 S12       30.06R
CHAMPAIGN      SUNNY     45  37  73 S12       30.07R
DECATUR        SUNNY     50  37  61 S13       30.07R
EFFINGHAM      SUNNY     50  35  57 SE10G17   30.09S
FLORA          SUNNY     47  40  75 SE7       30.08S
GALESBURG      SUNNY     45  35  68 SE6       29.99R
JACKSONVILLE   SUNNY     54  39  56 S6        30.01S
LACON          SUNNY     48  36  63 S5        30.01S
LAWRENCEVILLE  SUNNY     47  40  76 SE6       30.11S
LITCHFIELD     SUNNY     48  36  63 SE7       30.03S
$$


CITY           SKY/WX    TMP DP  RH WIND       PRES   REMARKS
LINCOLN        SUNNY     46  39  76 S7        30.05R
MACOMB         SUNNY     47  38  70 CALM      30.01R
MATTOON        SUNNY     48  37  65 S13       30.07R
MT CARMEL AP   SUNNY     46  41  81 CALM      30.10R
OLNEY-NOBLE AP SUNNY     48  37  66 SE9       30.09S
PARIS          SUNNY     47  40  76 S13       30.10R
PEORIA         SUNNY     49  37  63 S7        30.02S
PONTIAC        SUNNY     46  39  78 S7        30.06R
RANTOUL        SUNNY     44  38  81 S7        30.08R
ROBINSON       SUNNY     47  39  74 S8        30.11S
SPRINGFIELD    SUNNY     51  38  60 SE8       30.03R
TAYLORVILLE    SUNNY     46  36  66 SE9       30.04S
$$

...REGIONAL REPORTS...


CITY           SKY/WX    TMP DP  RH WIND       PRES   REMARKS
CHICAGO O`HARE SUNNY     43  37  79 CALM      30.04R
KANKAKEE       SUNNY     43  37  77 S13       30.07R
MOLINE         SUNNY     46  33  60 E5        29.97R
MOUNT VERNON   SUNNY     48  39  71 E3        30.07S
PITTSFIELD     MOSUNNY   52  37  54 S3        30.02R
QUINCY         FAIR      54  35  48 S9        29.99R
ROCKFORD       MOSUNNY   41  35  79 CALM      30.02R
$$


CITY           SKY/WX    TMP DP  RH WIND       PRES   REMARKS
BURLINGTON     SUNNY     52  36  54 S12       29.96S
CEDAR RAPIDS   SUNNY     47  35  63 SE7       29.92S
DES MOINES     MOSUNNY   57  33  40 S12       29.88R
KIRKSVILLE     MOSUNNY   52  39  61 S10       29.95F
OTTUMWA        SUNNY     54  35  48 S15       29.90F
ST LOUIS       PTSUNNY   60  36  40 S3        30.02R
$$


CITY           SKY/WX    TMP DP  RH WIND       PRES   REMARKS
TERRE HAUTE    SUNNY     46  37  71 S6        30.11R
EVANSVILLE     SUNNY     49  40  71 NE3       30.11S
INDIANAPOLIS   SUNNY     43  35  73 S5        30.09R
LAFAYETTE      SUNNY     43  35  73 CALM      30.08R
MADISON        MOSUNNY   41  31  67 SE9       30.01R
MILWAUKEE      MOSUNNY   39  35  86 CALM      30.05R
$$




USA.gov is the U.S. government's official web portal to all federal, state and local government web resources and services.